TimeCDT,TemperatureF,Dew PointF,Humidity,Sea Level PressureIn,VisibilityMPH,Wind Direction,Wind SpeedMPH,Gust SpeedMPH,PrecipitationIn,Events,Conditions,WindDirDegrees,DateUTC
12:53 AM,37.9,19.0,47,30.14,10.0,Calm,Calm,-,N/A,,Clear,0,2013-05-13 05:53:00
1:53 AM,34.0,23.0,64,30.13,10.0,Calm,Calm,-,N/A,,Clear,0,2013-05-13 06:53:00
2:53 AM,34.0,21.9,61,30.13,10.0,Calm,Calm,-,N/A,,Clear,0,2013-05-13 07:53:00
3:53 AM,32.0,24.1,73,30.12,10.0,Calm,Calm,-,N/A,,Clear,0,2013-05-13 08:53:00
4:53 AM,33.1,25.0,72,30.11,10.0,Calm,Calm,-,N/A,,Clear,0,2013-05-13 09:53:00
5:53 AM,35.1,27.0,72,30.10,10.0,Calm,Calm,-,N/A,,Clear,0,2013-05-13 10:53:00
6:53 AM,37.9,24.1,57,30.11,10.0,East,3.5,-,N/A,,Mostly Cloudy,100,2013-05-13 11:53:00
7:53 AM,43.0,25.0,49,30.10,10.0,SE,4.6,-,N/A,,Mostly Cloudy,130,2013-05-13 12:53:00
8:53 AM,50.0,25.0,38,30.07,10.0,SSE,10.4,-,N/A,,Mostly Cloudy,150,2013-05-13 13:53:00
9:53 AM,55.0,21.9,28,30.03,10.0,SSE,13.8,-,N/A,,Mostly Cloudy,160,2013-05-13 14:53:00
10:53 AM,50.0,36.0,59,30.02,8.0,SSE,10.4,-,0.01,Rain,Light Rain,150,2013-05-13 15:53:00
11:53 AM,51.1,36.0,56,29.99,8.0,SE,12.7,-,0.00,Rain,Light Rain,140,2013-05-13 16:53:00
12:53 PM,57.0,35.1,44,29.95,10.0,SSE,20.7,25.3,0.00,,Scattered Clouds,150,2013-05-13 17:53:00
1:53 PM,62.6,33.8,34,29.85,10.0,SE,19.6,26.5,N/A,,Clear,130,2013-05-13 18:53:00
3:53 PM,71.1,33.1,25,29.81,10.0,SSE,24.2,34.5,N/A,,Clear,160,2013-05-13 20:53:00
4:53 PM,73.0,37.0,27,29.78,10.0,SSE,20.7,27.6,N/A,,Clear,150,2013-05-13 21:53:00
5:53 PM,73.0,39.0,29,29.75,10.0,SE,16.1,24.2,N/A,,Clear,140,2013-05-13 22:53:00
6:53 PM,71.6,41.0,33,29.68,10.0,SE,18.4,25.3,N/A,,Clear,140,2013-05-13 23:53:00
7:53 PM,69.1,41.0,36,29.69,10.0,SE,13.8,-,N/A,,Clear,130,2013-05-14 00:53:00
8:53 PM,66.0,42.1,42,29.67,10.0,SE,9.2,-,N/A,,Clear,130,2013-05-14 01:53:00
9:53 PM,64.0,42.1,45,29.66,10.0,ESE,4.6,-,N/A,,Clear,120,2013-05-14 02:53:00
10:53 PM,60.1,43.0,53,29.67,10.0,ESE,3.5,-,N/A,,Clear,110,2013-05-14 03:53:00
11:53 PM,51.1,42.1,71,29.68,10.0,Calm,Calm,-,N/A,,Clear,0,2013-05-14 04:53:00